Find Tiros-N

NORAD ID: 11060 Int'l Des: 1978-096 Owner: GSFC Country: US operational
LEOCIRCULARRETROGRADESSO

Current View

Loading 3D Globe...

About Tiros-N

Description loading...

Upcoming Passes

Passes for default location (London). Set your location on the main map for personalized predictions.

Altitude History

Loading altitude history...

Two-Line Element Set

1 11060U 78096A 26146.28507764 .00000127 00000-0 80108-4 0 9997
2 11060 98.4539 168.3296 0009345 310.5500 49.4862 14.19368019675641
Epoch: May 26, 2026 • Age: 5 hours

Current Status

Altitude 847.6 km
Velocity 7.43 km/s
Sub-Earth Point -70.96°S, 136.2°E
Launch Date Oct 13, 1978
Age 47.6 years
Type other

Technical Details

Classification Payload
Mass 675.00 kg
Dry Mass 675.00 kg
Total Mass 1405.00 kg
Length 3.70 m
Diameter 1.90 m
Span 4.90 m
Shape Box + Pan
Manufacturer RCA
Bus Type Tiros N
Phase Status In Orbit
Owner/State GSFC/US

Most Searched